| time (UTC) | temp F | wind direction | speed MPH | gust MPH | rain 1hr in | rain 24hr in | rain mn in | humidity % | barometer mb |
| 20260906230242 | 86 | 132 | 1.0 | 4.0 | 0.00 | 0.52 | 0.52 | 80 | 1010.9 |
| 20260906230007 | 86 | 178 | 1.0 | 4.0 | 0.00 | 0.52 | 0.52 | 82 | 1010.9 |
| 20260906225219 | 86 | 135 | 0.0 | 4.0 | 0.00 | 0.52 | 0.52 | 83 | 1011.0 |
| 20260906225134 | 86 | 145 | 1.0 | 3.0 | 0.00 | 0.52 | 0.52 | 85 | 1011.1 |
| 20260906224153 | 86 | 146 | 1.0 | 5.0 | 0.00 | 0.52 | 0.52 | 85 | 1011.2 |
| 20260906223654 | 85 | 141 | 0.0 | 5.0 | 0.00 | 0.52 | 0.52 | 85 | 1011.3 |
| 20260906223125 | 85 | 134 | 0.0 | 3.0 | 0.00 | 0.52 | 0.52 | 87 | 1011.4 |
| 20260906222815 | 84 | 197 | 0.0 | 1.0 | 0.00 | 0.52 | 0.52 | 88 | 1011.5 |
| 20260906222656 | 84 | 134 | 0.0 | 3.0 | 0.00 | 0.52 | 0.52 | 88 | 1011.4 |
| 20260906221536 | 83 | 197 | 0.0 | 1.0 | 0.00 | 0.52 | 0.52 | 89 | 1011.5 |
| 20260906221018 | 83 | 197 | 0.0 | 0.0 | 0.00 | 0.52 | 0.52 | 89 | 1011.5 |
| 20260906220519 | 83 | 197 | 0.0 | 0.0 | 0.00 | 0.52 | 0.52 | 89 | 1011.5 |
| 20260906220005 | 83 | 197 | 0.0 | 0.0 | 0.00 | 0.52 | 0.52 | 90 | 1011.6 |
| 20260906215451 | 83 | 197 | 0.0 | 1.0 | 0.00 | 0.52 | 0.52 | 90 | 1011.9 |
| 20260906214950 | 82 | 197 | 0.0 | 1.0 | 0.00 | 0.52 | 0.52 | 90 | 1012.0 |
| 20260906214426 | 82 | 197 | 0.0 | 1.0 | 0.00 | 0.52 | 0.52 | 91 | 1012.0 |
| 20260906213925 | 82 | 197 | 0.0 | 1.0 | 0.00 | 0.52 | 0.52 | 91 | 1012.0 |
| 20260906213423 | 82 | 197 | 0.0 | 1.0 | 0.00 | 0.52 | 0.52 | 91 | 1012.0 |
| 20260906212923 | 82 | 197 | 0.0 | 0.0 | 0.00 | 0.52 | 0.52 | 92 | 1012.2 |
| 20260906212354 | 82 | 197 | 0.0 | 0.0 | 0.00 | 0.52 | 0.52 | 92 | 1012.3 |
| 20260906211837 | 82 | 197 | 0.0 | 0.0 | 0.00 | 0.52 | 0.52 | 92 | 1012.2 |
| 20260906211334 | 82 | 197 | 0.0 | 1.0 | 0.00 | 0.52 | 0.52 | 92 | 1012.3 |
| 20260906210837 | 82 | 197 | 0.0 | 0.0 | 0.00 | 0.52 | 0.52 | 91 | 1012.3 |
| 20260906210312 | 82 | 197 | 0.0 | 1.0 | 0.00 | 0.52 | 0.52 | 91 | 1012.5 |
| 20260906205813 | 82 | 197 | 0.0 | 1.0 | 0.00 | 0.52 | 0.52 | 91 | 1012.5 |
| 20260906205310 | 82 | 197 | 0.0 | 1.0 | 0.00 | 0.52 | 0.52 | 91 | 1012.5 |
| 20260906204800 | 82 | 197 | 0.0 | 1.0 | 0.00 | 0.52 | 0.52 | 91 | 1012.9 |
| 20260906204501 | 82 | 197 | 0.0 | 1.0 | 0.00 | 0.52 | 0.52 | 91 | 1012.8 |
| 20260906203713 | 82 | 197 | 0.0 | 1.0 | 0.00 | 0.52 | 0.52 | 91 | 1012.7 |
| 20260906203411 | 82 | 197 | 0.0 | 1.0 | 0.00 | 0.52 | 0.52 | 91 | 1012.9 |
| 20260906202629 | 82 | 197 | 0.0 | 1.0 | 0.00 | 0.52 | 0.52 | 91 | 1012.8 |
| 20260906202103 | 82 | 197 | 0.0 | 3.0 | 0.00 | 0.52 | 0.52 | 91 | 1012.7 |
| 20260906201546 | 82 | 197 | 1.0 | 3.0 | 0.00 | 0.52 | 0.52 | 91 | 1012.7 |
| 20260906201021 | 82 | 200 | 0.0 | 3.0 | 0.00 | 0.52 | 0.52 | 91 | 1012.5 |
| 20260906200457 | 83 | 202 | 0.0 | 4.0 | 0.00 | 0.52 | 0.52 | 94 | 1012.8 |
| 20260906200147 | 83 | 202 | 1.0 | 4.0 | 0.00 | 0.52 | 0.52 | 95 | 1012.7 |
| 20260906195402 | 82 | 203 | 1.0 | 4.0 | 0.01 | 0.52 | 0.52 | 95 | 1012.7 |
| 20260906195105 | 82 | 145 | 1.0 | 5.0 | 0.01 | 0.52 | 0.52 | 96 | 1012.6 |
| 20260906194602 | 81 | 159 | 1.0 | 4.0 | 0.01 | 0.52 | 0.52 | 96 | 1012.5 |
| 20260906193834 | 81 | 157 | 1.0 | 4.0 | 0.01 | 0.52 | 0.52 | 95 | 1012.7 |
| 20260906193329 | 81 | 115 | 1.0 | 4.0 | 0.02 | 0.52 | 0.52 | 95 | 1012.9 |
| 20260906192801 | 81 | 153 | 1.0 | 3.0 | 0.02 | 0.52 | 0.52 | 95 | 1013.0 |
| 20260906192256 | 82 | 142 | 0.0 | 2.0 | 0.03 | 0.52 | 0.52 | 95 | 1013.0 |
| 20260906191741 | 81 | 142 | 0.0 | 2.0 | 0.06 | 0.52 | 0.52 | 96 | 1013.2 |
| 20260906191434 | 80 | 142 | 0.0 | 2.0 | 0.12 | 0.52 | 0.52 | 95 | 1013.4 |
| 20260906190710 | 80 | 142 | 0.0 | 2.0 | 0.18 | 0.52 | 0.52 | 95 | 1013.5 |
| 20260906190433 | 80 | 142 | 1.0 | 2.0 | 0.31 | 0.52 | 0.52 | 94 | 1013.5 |
| 20260906185707 | 80 | 142 | 1.0 | 2.0 | 0.45 | 0.51 | 0.51 | 94 | 1013.7 |
| 20260906185155 | 80 | 141 | 1.0 | 3.0 | 0.51 | 0.51 | 0.51 | 93 | 1013.8 |
| 20260906184655 | 80 | 142 | 0.0 | 3.0 | 0.51 | 0.51 | 0.51 | 93 | 1013.7 |
| 20260906184118 | 80 | 134 | 0.0 | 2.0 | 0.51 | 0.51 | 0.51 | 93 | 1013.6 |
| 20260906183554 | 80 | 132 | 1.0 | 5.0 | 0.51 | 0.51 | 0.51 | 92 | 1013.7 |
| 20260906183028 | 81 | 130 | 1.0 | 5.0 | 0.50 | 0.50 | 0.50 | 92 | 1013.6 |
| 20260906182528 | 81 | 151 | 1.0 | 3.0 | 0.50 | 0.50 | 0.50 | 91 | 1013.7 |
| 20260906182251 | 81 | 178 | 1.0 | 3.0 | 0.48 | 0.48 | 0.48 | 90 | 1013.7 |
| 20260906181530 | 82 | 163 | 1.0 | 5.0 | 0.44 | 0.44 | 0.45 | 88 | 1013.8 |
| 20260906181507 | 83 | 140 | 1.0 | 5.0 | 0.38 | 0.38 | 0.39 | 87 | 1013.9 |
| 20260906180522 | 84 | 150 | 1.0 | 5.0 | 0.30 | 0.30 | 0.31 | 85 | 1013.9 |
| 20260906180012 | 85 | 182 | 1.0 | 3.0 | 0.12 | 0.12 | 0.15 | 84 | 1013.9 |
| 20260906175953 | 86 | 182 | 2.0 | 5.0 | 0.00 | 0.00 | 0.00 | 81 | 1013.9 |
| 20260906174933 | 86 | 281 | 2.0 | 5.0 | 0.00 | 0.00 | 0.00 | 80 | 1013.9 |
| 20260906174404 | 87 | 287 | 2.0 | 5.0 | 0.00 | 0.00 | 0.00 | 79 | 1013.9 |
| 20260906173840 | 88 | 172 | 1.0 | 5.0 | 0.00 | 0.00 | 0.00 | 77 | 1013.7 |
| 20260906173328 | 89 | 194 | 1.0 | 5.0 | 0.00 | 0.00 | 0.00 | 76 | 1013.7 |
| 20260906172802 | 89 | 188 | 0.0 | 2.0 | 0.00 | 0.00 | 0.00 | 75 | 1013.6 |
| 20260906172305 | 90 | 192 | 0.0 | 5.0 | 0.00 | 0.00 | 0.00 | 74 | 1013.7 |
| 20260906172004 | 90 | 274 | 0.0 | 2.0 | 0.00 | 0.00 | 0.00 | 73 | 1013.8 |
| 20260906171218 | 91 | 288 | 0.0 | 3.0 | 0.00 | 0.00 | 0.00 | 73 | 1013.8 |
| 20260906170649 | 91 | 294 | 1.0 | 3.0 | 0.00 | 0.00 | 0.00 | 72 | 1013.8 |
| 20260906170123 | 92 | 348 | 0.0 | 2.0 | 0.00 | 0.00 | 0.00 | 71 | 1013.9 |
| 20260906165557 | 92 | 88 | 1.0 | 5.0 | 0.00 | 0.00 | 0.00 | 68 | 1013.8 |
| 20260906165028 | 93 | 88 | 1.0 | 5.0 | 0.00 | 0.00 | 0.00 | 67 | 1013.8 |
| 20260906164527 | 93 | 63 | 1.0 | 4.0 | 0.00 | 0.00 | 0.00 | 69 | 1013.8 |
| 20260906164006 | 93 | 106 | 1.0 | 7.0 | 0.00 | 0.00 | 0.00 | 70 | 1013.8 |
| 20260906163507 | 92 | 81 | 2.0 | 7.0 | 0.00 | 0.00 | 0.00 | 71 | 1013.9 |
| 20260906163238 | 93 | 69 | 2.0 | 6.0 | 0.00 | 0.00 | 0.00 | 71 | 1013.9 |
| 20260906162459 | 93 | 82 | 2.0 | 6.0 | 0.00 | 0.00 | 0.00 | 71 | 1013.9 |
| 20260906161957 | 92 | 44 | 2.0 | 5.0 | 0.00 | 0.00 | 0.00 | 71 | 1014.0 |
| 20260906161451 | 92 | 88 | 2.0 | 7.0 | 0.00 | 0.00 | 0.00 | 74 | 1013.9 |
| 20260906160924 | 91 | 5 | 2.0 | 7.0 | 0.00 | 0.00 | 0.00 | 75 | 1013.8 |
| 20260906160358 | 91 | 227 | 2.0 | 7.0 | 0.00 | 0.00 | 0.00 | 74 | 1013.9 |
| 20260906160120 | 91 | 40 | 3.0 | 7.0 | 0.00 | 0.00 | 0.00 | 75 | 1013.9 |
| 20260906155352 | 91 | 65 | 3.0 | 5.0 | 0.00 | 0.00 | 0.00 | 75 | 1014.0 |
| 20260906154848 | 91 | 32 | 2.0 | 6.0 | 0.00 | 0.00 | 0.00 | 77 | 1013.9 |
| 20260906154345 | 90 | 88 | 1.0 | 5.0 | 0.00 | 0.00 | 0.00 | 79 | 1014.0 |
| 20260906154104 | 89 | 110 | 1.0 | 5.0 | 0.00 | 0.00 | 0.00 | 80 | 1014.0 |
| 20260906153313 | 88 | 69 | 1.0 | 4.0 | 0.00 | 0.00 | 0.00 | 80 | 1014.1 |
| 20260906152811 | 88 | 42 | 1.0 | 4.0 | 0.00 | 0.00 | 0.00 | 81 | 1014.1 |
| 20260906152505 | 88 | 58 | 1.0 | 4.0 | 0.00 | 0.00 | 0.00 | 82 | 1014.1 |
| 20260906151742 | 88 | 81 | 1.0 | 5.0 | 0.00 | 0.00 | 0.00 | 83 | 1014.0 |
| 20260906151239 | 88 | 81 | 2.0 | 5.0 | 0.00 | 0.00 | 0.00 | 84 | 1014.1 |
| 20260906150935 | 87 | 92 | 1.0 | 5.0 | 0.00 | 0.00 | 0.00 | 85 | 1014.0 |
| 20260906150156 | 87 | 94 | 0.0 | 3.0 | 0.00 | 0.00 | 0.00 | 85 | 1014.1 |
| 20260906145654 | 86 | 165 | 0.0 | 2.0 | 0.00 | 0.00 | 0.00 | 86 | 1014.1 |
| 20260906145413 | 86 | 165 | 1.0 | 2.0 | 0.00 | 0.00 | 0.00 | 87 | 1014.0 |
| 20260906144623 | 86 | 171 | 1.0 | 3.0 | 0.00 | 0.00 | 0.00 | 88 | 1014.0 |
| 20260906144121 | 85 | 180 | 1.0 | 3.0 | 0.00 | 0.00 | 0.00 | 89 | 1014.0 |
| 20260906143554 | 84 | 91 | 1.0 | 4.0 | 0.00 | 0.00 | 0.00 | 90 | 1014.0 |
| 20260906143052 | 84 | 98 | 0.0 | 4.0 | 0.00 | 0.00 | 0.00 | 92 | 1014.0 |
| 20260906142547 | 83 | 159 | 1.0 | 4.0 | 0.00 | 0.00 | 0.00 | 92 | 1014.0 |
| 20260906142023 | 83 | 159 | 1.0 | 4.0 | 0.00 | 0.00 | 0.00 | 92 | 1014.0 |
| 20260906141520 | 83 | 159 | 1.0 | 3.0 | 0.00 | 0.00 | 0.00 | 93 | 1014.0 |
| 20260906141247 | 82 | 51 | 1.0 | 3.0 | 0.00 | 0.00 | 0.00 | 93 | 1013.9 |
| 20260906140451 | 82 | 88 | 1.0 | 5.0 | 0.00 | 0.00 | 0.00 | 94 | 1013.9 |
| 20260906135923 | 82 | 84 | 1.0 | 5.0 | 0.00 | 0.00 | 0.00 | 94 | 1013.8 |
| 20260906135423 | 82 | 83 | 1.0 | 5.0 | 0.00 | 0.00 | 0.00 | 95 | 1013.8 |
| 20260906134919 | 81 | 91 | 1.0 | 5.0 | 0.00 | 0.00 | 0.00 | 95 | 1013.8 |
| 20260906134416 | 81 | 91 | 0.0 | 5.0 | 0.00 | 0.00 | 0.00 | 95 | 1013.8 |
| 20260906134135 | 81 | 104 | 1.0 | 2.0 | 0.00 | 0.00 | 0.00 | 96 | 1013.8 |
| 20260906133411 | 81 | 103 | 1.0 | 3.0 | 0.00 | 0.00 | 0.00 | 96 | 1013.8 |
| 20260906132909 | 80 | 104 | 0.0 | 3.0 | 0.00 | 0.00 | 0.00 | 96 | 1013.7 |
| 20260906132610 | 80 | 105 | 0.0 | 3.0 | 0.00 | 0.00 | 0.00 | 96 | 1013.6 |
| 20260906131839 | 80 | 105 | 0.0 | 3.0 | 0.00 | 0.00 | 0.00 | 96 | 1013.5 |
| 20260906131601 | 80 | 105 | 0.0 | 1.0 | 0.00 | 0.00 | 0.00 | 96 | 1013.5 |
| 20260906131039 | 80 | 105 | 0.0 | 2.0 | 0.00 | 0.00 | 0.00 | 96 | 1013.5 |
| 20260906130315 | 79 | 105 | 0.0 | 2.0 | 0.00 | 0.00 | 0.00 | 96 | 1013.4 |
| 20260906125814 | 79 | 105 | 1.0 | 2.0 | 0.00 | 0.00 | 0.00 | 97 | 1013.4 |
| 20260906125310 | 79 | 105 | 1.0 | 2.0 | 0.00 | 0.00 | 0.00 | 97 | 1013.4 |
| 20260906124751 | 79 | 105 | 0.0 | 2.0 | 0.00 | 0.00 | 0.00 | 97 | 1013.2 |
| 20260906124512 | 78 | 105 | 0.0 | 1.0 | 0.00 | 0.00 | 0.00 | 96 | 1013.1 |
| 20260906123751 | 78 | 105 | 0.0 | 0.0 | 0.00 | 0.00 | 0.00 | 96 | 1013.0 |
| 20260906123509 | 78 | 105 | 0.0 | 0.0 | 0.00 | 0.00 | 0.00 | 96 | 1013.0 |
| 20260906122751 | 78 | 105 | 0.0 | 3.0 | 0.00 | 0.00 | 0.00 | 96 | 1013.0 |
| 20260906122225 | 78 | 105 | 0.0 | 3.0 | 0.00 | 0.00 | 0.00 | 96 | 1012.9 |
| 20260906121942 | 78 | 105 | 0.0 | 3.0 | 0.00 | 0.00 | 0.00 | 96 | 1012.9 |
| 20260906121215 | 78 | 105 | 0.0 | 3.0 | 0.00 | 0.00 | 0.00 | 96 | 1012.8 |
| 20260906120646 | 78 | 138 | 0.0 | 1.0 | 0.00 | 0.00 | 0.00 | 96 | 1012.7 |
| 20260906120145 | 78 | 138 | 0.0 | 1.0 | 0.00 | 0.00 | 0.00 | 96 | 1012.7 |
| 20260906115617 | 78 | 139 | 0.0 | 0.0 | 0.00 | 0.00 | 0.00 | 96 | 1012.6 |
| 20260906115113 | 78 | 139 | 0.0 | 0.0 | 0.00 | 0.00 | 0.00 | 96 | 1012.5 |
| 20260906114612 | 78 | 139 | 0.0 | 0.0 | 0.00 | 0.00 | 0.00 | 96 | 1012.5 |
| 20260906114109 | 78 | 139 | 0.0 | 0.0 | 0.00 | 0.00 | 0.00 | 96 | 1012.4 |
| 20260906113542 | 78 | 139 | 0.0 | 0.0 | 0.00 | 0.00 | 0.00 | 95 | 1012.4 |
| 20260906113016 | 78 | 139 | 0.0 | 0.0 | 0.00 | 0.00 | 0.00 | 95 | 1012.3 |
| 20260906112512 | 78 | 139 | 0.0 | 0.0 | 0.00 | 0.00 | 0.00 | 95 | 1012.3 |
| 20260906112205 | 78 | 139 | 0.0 | 0.0 | 0.00 | 0.00 | 0.00 | 95 | 1012.3 |
| 20260906111444 | 78 | 139 | 0.0 | 0.0 | 0.00 | 0.00 | 0.00 | 95 | 1012.3 |
| 20260906111154 | 78 | 139 | 0.0 | 0.0 | 0.00 | 0.00 | 0.00 | 95 | 1012.3 |
| 20260906110437 | 78 | 139 | 0.0 | 0.0 | 0.00 | 0.00 | 0.00 | 95 | 1012.3 |
| 20260906110134 | 78 | 139 | 0.0 | 0.0 | 0.00 | 0.00 | 0.00 | 95 | 1012.2 |
| 20260906105403 | 78 | 139 | 0.0 | 0.0 | 0.00 | 0.00 | 0.00 | 95 | 1012.2 |
| 20260906104858 | 78 | 139 | 0.0 | 0.0 | 0.00 | 0.00 | 0.00 | 95 | 1012.2 |
| 20260906104355 | 78 | 139 | 0.0 | 0.0 | 0.00 | 0.00 | 0.00 | 95 | 1012.2 |
| 20260906104053 | 78 | 139 | 0.0 | 0.0 | 0.00 | 0.00 | 0.00 | 95 | 1012.1 |
| 20260906103326 | 78 | 139 | 0.0 | 0.0 | 0.00 | 0.00 | 0.00 | 95 | 1012.1 |
| 20260906102822 | 79 | 139 | 0.0 | 0.0 | 0.00 | 0.00 | 0.00 | 95 | 1012.1 |
| 20260906102319 | 79 | 139 | 0.0 | 0.0 | 0.00 | 0.00 | 0.00 | 95 | 1012.0 |
| 20260906101816 | 79 | 139 | 0.0 | 1.0 | 0.00 | 0.00 | 0.00 | 95 | 1011.9 |
| 20260906101313 | 79 | 139 | 0.0 | 1.0 | 0.00 | 0.00 | 0.00 | 95 | 1011.8 |
| 20260906100810 | 79 | 139 | 0.0 | 0.0 | 0.00 | 0.00 | 0.00 | 95 | 1011.8 |
| 20260906100307 | 79 | 139 | 0.0 | 2.0 | 0.00 | 0.00 | 0.00 | 95 | 1011.8 |
| 20260906095750 | 79 | 140 | 0.0 | 2.0 | 0.00 | 0.00 | 0.00 | 95 | 1011.8 |
| 20260906095249 | 79 | 142 | 0.0 | 1.0 | 0.00 | 0.00 | 0.00 | 95 | 1011.8 |
| 20260906095008 | 79 | 144 | 0.0 | 1.0 | 0.00 | 0.00 | 0.00 | 95 | 1011.9 |
| 20260906094246 | 79 | 144 | 0.0 | 1.0 | 0.00 | 0.00 | 0.00 | 95 | 1011.9 |
| 20260906093748 | 79 | 144 | 0.0 | 0.0 | 0.00 | 0.00 | 0.00 | 95 | 1011.9 |
| 20260906093221 | 79 | 144 | 0.0 | 1.0 | 0.00 | 0.00 | 0.00 | 95 | 1011.9 |
| 20260906092717 | 79 | 144 | 0.0 | 1.0 | 0.00 | 0.00 | 0.00 | 95 | 1011.9 |
| 20260906092149 | 79 | 145 | 0.0 | 0.0 | 0.00 | 0.00 | 0.00 | 95 | 1011.8 |
| 20260906091646 | 79 | 145 | 0.0 | 0.0 | 0.00 | 0.00 | 0.00 | 95 | 1011.8 |
| 20260906091143 | 79 | 145 | 0.0 | 0.0 | 0.00 | 0.00 | 0.00 | 95 | 1011.7 |
| 20260906090640 | 79 | 145 | 0.0 | 0.0 | 0.00 | 0.00 | 0.00 | 95 | 1011.8 |
| 20260906090128 | 80 | 145 | 0.0 | 0.0 | 0.00 | 0.00 | 0.00 | 95 | 1011.7 |
| 20260906085630 | 80 | 145 | 0.0 | 0.0 | 0.00 | 0.00 | 0.00 | 95 | 1011.7 |
| 20260906085104 | 79 | 145 | 0.0 | 0.0 | 0.00 | 0.00 | 0.00 | 95 | 1011.6 |
| 20260906084804 | 79 | 145 | 0.0 | 0.0 | 0.00 | 0.00 | 0.00 | 95 | 1011.6 |
| 20260906084013 | 79 | 145 | 0.0 | 0.0 | 0.00 | 0.00 | 0.00 | 95 | 1011.6 |
| 20260906083500 | 79 | 145 | 0.0 | 0.0 | 0.00 | 0.00 | 0.00 | 95 | 1011.6 |
| 20260906082958 | 79 | 145 | 0.0 | 0.0 | 0.00 | 0.00 | 0.00 | 95 | 1011.7 |
| 20260906082501 | 80 | 145 | 0.0 | 0.0 | 0.00 | 0.00 | 0.00 | 95 | 1011.7 |
| 20260906081935 | 80 | 145 | 0.0 | 0.0 | 0.00 | 0.00 | 0.00 | 95 | 1011.8 |
| 20260906081854 | 80 | 145 | 0.0 | 0.0 | 0.00 | 0.00 | 0.00 | 95 | 1011.8 |
| 20260906080905 | 80 | 145 | 0.0 | 0.0 | 0.00 | 0.00 | 0.00 | 95 | 1011.7 |
| 20260906080339 | 80 | 145 | 0.0 | 0.0 | 0.00 | 0.00 | 0.00 | 95 | 1011.7 |
| 20260906075813 | 79 | 145 | 0.0 | 0.0 | 0.00 | 0.00 | 0.00 | 95 | 1011.7 |
| 20260906075247 | 79 | 145 | 0.0 | 0.0 | 0.00 | 0.00 | 0.00 | 95 | 1011.7 |
| 20260906074721 | 80 | 145 | 0.0 | 0.0 | 0.00 | 0.00 | 0.00 | 95 | 1011.8 |
| 20260906074153 | 80 | 145 | 0.0 | 0.0 | 0.00 | 0.00 | 0.00 | 95 | 1011.9 |
| 20260906073651 | 80 | 145 | 0.0 | 0.0 | 0.00 | 0.00 | 0.00 | 95 | 1012.0 |
| 20260906073123 | 80 | 145 | 0.0 | 0.0 | 0.00 | 0.00 | 0.00 | 95 | 1012.0 |
| 20260906072620 | 80 | 145 | 0.0 | 0.0 | 0.00 | 0.00 | 0.00 | 95 | 1012.0 |
| 20260906072055 | 80 | 145 | 0.0 | 0.0 | 0.00 | 0.00 | 0.00 | 95 | 1012.1 |
| 20260906071529 | 79 | 145 | 0.0 | 0.0 | 0.00 | 0.00 | 0.00 | 94 | 1012.1 |
| 20260906071001 | 79 | 145 | 0.0 | 0.0 | 0.00 | 0.00 | 0.00 | 94 | 1012.1 |
| 20260906070459 | 79 | 145 | 0.0 | 0.0 | 0.00 | 0.00 | 0.00 | 94 | 1012.0 |
| 20260906065933 | 79 | 145 | 0.0 | 0.0 | 0.00 | 0.00 | 0.00 | 94 | 1012.1 |
| 20260906065647 | 79 | 145 | 0.0 | 0.0 | 0.00 | 0.00 | 0.00 | 94 | 1012.1 |
| 20260906064927 | 79 | 145 | 0.0 | 0.0 | 0.00 | 0.00 | 0.00 | 94 | 1012.1 |
| 20260906064414 | 79 | 145 | 0.0 | 0.0 | 0.00 | 0.00 | 0.00 | 94 | 1012.1 |
| 20260906063916 | 79 | 145 | 0.0 | 0.0 | 0.00 | 0.00 | 0.00 | 94 | 1012.1 |
| 20260906063410 | 79 | 145 | 0.0 | 0.0 | 0.00 | 0.00 | 0.00 | 94 | 1012.1 |
| 20260906062906 | 79 | 145 | 0.0 | 0.0 | 0.00 | 0.00 | 0.00 | 94 | 1012.2 |
| 20260906062339 | 79 | 145 | 0.0 | 0.0 | 0.00 | 0.00 | 0.00 | 94 | 1012.2 |
| 20260906062059 | 79 | 145 | 0.0 | 0.0 | 0.00 | 0.00 | 0.00 | 94 | 1012.2 |
| 20260906061330 | 79 | 145 | 0.0 | 0.0 | 0.00 | 0.00 | 0.00 | 94 | 1012.2 |
| 20260906060827 | 79 | 145 | 0.0 | 0.0 | 0.00 | 0.00 | 0.00 | 94 | 1012.1 |
| 20260906060301 | 79 | 145 | 0.0 | 0.0 | 0.00 | 0.00 | 0.00 | 94 | 1012.1 |
| 20260906055758 | 79 | 145 | 0.0 | 0.0 | 0.00 | 0.00 | 0.00 | 94 | 1012.1 |
| 20260906055254 | 79 | 145 | 0.0 | 0.0 | 0.00 | 0.00 | 0.00 | 94 | 1012.2 |
| 20260906054727 | 79 | 145 | 0.0 | 0.0 | 0.00 | 0.00 | 0.00 | 94 | 1012.2 |
| 20260906054225 | 79 | 145 | 0.0 | 0.0 | 0.00 | 0.00 | 0.00 | 94 | 1012.2 |
| 20260906053722 | 79 | 145 | 0.0 | 0.0 | 0.00 | 0.00 | 0.00 | 94 | 1012.3 |
| 20260906053440 | 79 | 145 | 0.0 | 0.0 | 0.00 | 0.00 | 0.00 | 94 | 1012.3 |
| 20260906052651 | 79 | 145 | 0.0 | 0.0 | 0.00 | 0.00 | 0.00 | 94 | 1012.2 |
| 20260906052149 | 79 | 145 | 0.0 | 0.0 | 0.00 | 0.00 | 0.00 | 94 | 1012.2 |
| 20260906051622 | 79 | 145 | 0.0 | 0.0 | 0.00 | 0.00 | 0.00 | 93 | 1012.2 |
| 20260906051117 | 79 | 145 | 0.0 | 0.0 | 0.00 | 0.00 | 0.00 | 93 | 1012.1 |
| 20260906050817 | 79 | 145 | 0.0 | 0.0 | 0.00 | 0.00 | 0.00 | 93 | 1012.2 |
| 20260906050026 | 79 | 145 | 0.0 | 0.0 | 0.00 | 0.00 | 0.00 | 93 | 1012.1 |
| 20260906045500 | 79 | 145 | 0.0 | 0.0 | 0.00 | 0.00 | 0.00 | 93 | 1012.2 |
| 20260906044954 | 79 | 145 | 0.0 | 0.0 | 0.00 | 0.00 | 0.00 | 93 | 1012.2 |
| 20260906044451 | 79 | 145 | 0.0 | 0.0 | 0.00 | 0.00 | 0.00 | 93 | 1012.2 |
| 20260906044213 | 79 | 145 | 0.0 | 0.0 | 0.00 | 0.00 | 0.00 | 93 | 1012.1 |
| 20260906043419 | 79 | 145 | 0.0 | 0.0 | 0.00 | 0.00 | 0.00 | 93 | 1012.1 |
| 20260906043139 | 79 | 145 | 0.0 | 0.0 | 0.00 | 0.00 | 0.00 | 93 | 1012.2 |
| 20260906042414 | 79 | 145 | 0.0 | 0.0 | 0.00 | 0.00 | 0.00 | 92 | 1012.2 |
| 20260906042129 | 79 | 145 | 0.0 | 0.0 | 0.00 | 0.00 | 0.00 | 92 | 1012.3 |
| 20260906041404 | 79 | 145 | 0.0 | 0.0 | 0.00 | 0.00 | 0.00 | 92 | 1012.2 |
| 20260906040858 | 79 | 145 | 0.0 | 0.0 | 0.00 | 0.00 | 0.00 | 92 | 1012.2 |
| 20260906040355 | 79 | 145 | 0.0 | 0.0 | 0.00 | 0.00 | 0.00 | 92 | 1012.3 |
| 20260906035826 | 79 | 145 | 0.0 | 0.0 | 0.00 | 0.00 | 0.00 | 92 | 1012.3 |
| 20260906035259 | 79 | 145 | 0.0 | 0.0 | 0.00 | 0.00 | 0.00 | 92 | 1012.4 |
| 20260906034753 | 79 | 145 | 0.0 | 0.0 | 0.00 | 0.00 | 0.00 | 92 | 1012.4 |
| 20260906034249 | 79 | 145 | 0.0 | 0.0 | 0.00 | 0.00 | 0.00 | 92 | 1012.4 |
| 20260906033723 | 79 | 145 | 0.0 | 0.0 | 0.00 | 0.00 | 0.00 | 91 | 1012.4 |
| 20260906033218 | 79 | 144 | 0.0 | 1.0 | 0.00 | 0.00 | 0.00 | 91 | 1012.3 |
| 20260906032652 | 79 | 145 | 0.0 | 1.0 | 0.00 | 0.00 | 0.00 | 91 | 1012.4 |
| 20260906032345 | 80 | 145 | 0.0 | 1.0 | 0.00 | 0.00 | 0.00 | 91 | 1012.5 |
| 20260906031558 | 80 | 144 | 0.0 | 1.0 | 0.00 | 0.00 | 0.00 | 91 | 1012.4 |
| 20260906031054 | 80 | 144 | 0.0 | 2.0 | 0.00 | 0.00 | 0.00 | 91 | 1012.3 |
| 20260906030546 | 80 | 144 | 0.0 | 2.0 | 0.00 | 0.00 | 0.00 | 91 | 1012.2 |
| 20260906030044 | 80 | 140 | 0.0 | 1.0 | 0.00 | 0.00 | 0.00 | 91 | 1012.1 |
| 20260906025517 | 80 | 140 | 0.0 | 1.0 | 0.00 | 0.00 | 0.00 | 91 | 1012.1 |
| 20260906024950 | 80 | 139 | 0.0 | 2.0 | 0.00 | 0.00 | 0.00 | 91 | 1012.0 |
| 20260906024447 | 80 | 76 | 0.0 | 3.0 | 0.00 | 0.00 | 0.00 | 91 | 1012.0 |
| 20260906024204 | 80 | 74 | 0.0 | 3.0 | 0.00 | 0.00 | 0.00 | 91 | 1011.9 |
| 20260906023441 | 80 | 98 | 0.0 | 1.0 | 0.00 | 0.00 | 0.00 | 91 | 1011.9 |
| 20260906022914 | 80 | 98 | 0.0 | 1.0 | 0.00 | 0.00 | 0.00 | 91 | 1011.8 |
| 20260906022412 | 80 | 98 | 0.0 | 3.0 | 0.00 | 0.00 | 0.00 | 91 | 1011.7 |
| 20260906022325 | 80 | 90 | 0.0 | 3.0 | 0.00 | 0.00 | 0.00 | 91 | 1011.7 |
| 20260906021333 | 80 | 96 | 1.0 | 7.0 | 0.00 | 0.00 | 0.00 | 91 | 1011.6 |
| 20260906020836 | 80 | 68 | 1.0 | 7.0 | 0.00 | 0.00 | 0.00 | 91 | 1011.7 |
| 20260906020310 | 80 | 46 | 1.0 | 6.0 | 0.00 | 0.00 | 0.00 | 91 | 1011.6 |
| 20260906015758 | 80 | 154 | 0.0 | 6.0 | 0.00 | 0.00 | 0.00 | 91 | 1011.5 |
| 20260906015255 | 81 | 117 | 0.0 | 2.0 | 0.00 | 0.00 | 0.00 | 91 | 1011.4 |
| 20260906014730 | 81 | 157 | 0.0 | 2.0 | 0.00 | 0.00 | 0.00 | 91 | 1011.3 |
| 20260906014205 | 81 | 163 | 0.0 | 2.0 | 0.00 | 0.00 | 0.00 | 91 | 1011.3 |
| 20260906013704 | 81 | 163 | 0.0 | 2.0 | 0.00 | 0.00 | 0.00 | 91 | 1011.2 |
| 20260906013151 | 81 | 71 | 0.0 | 1.0 | 0.00 | 0.00 | 0.00 | 91 | 1011.2 |
| 20260906012649 | 81 | 71 | 0.0 | 2.0 | 0.00 | 0.00 | 0.00 | 91 | 1011.1 |
| 20260906012123 | 81 | 69 | 0.0 | 2.0 | 0.00 | 0.00 | 0.00 | 91 | 1011.1 |
| 20260906011558 | 81 | 69 | 0.0 | 2.0 | 0.00 | 0.00 | 0.00 | 91 | 1011.1 |
| 20260906011030 | 81 | 69 | 0.0 | 2.0 | 0.00 | 0.00 | 0.00 | 91 | 1011.1 |
| 20260906010528 | 81 | 76 | 0.0 | 1.0 | 0.00 | 0.00 | 0.00 | 91 | 1011.0 |
| 20260906010222 | 81 | 78 | 0.0 | 2.0 | 0.00 | 0.00 | 0.00 | 90 | 1010.9 |
| 20260906005457 | 81 | 75 | 0.0 | 2.0 | 0.00 | 0.00 | 0.00 | 90 | 1011.0 |
| 20260906004930 | 82 | 75 | 0.0 | 2.0 | 0.00 | 0.00 | 0.00 | 90 | 1011.1 |
| 20260906004428 | 82 | 97 | 0.0 | 3.0 | 0.00 | 0.00 | 0.00 | 90 | 1011.3 |
| 20260906003900 | 82 | 100 | 1.0 | 3.0 | 0.00 | 0.00 | 0.00 | 90 | 1011.4 |
| 20260906003358 | 82 | 63 | 0.0 | 3.0 | 0.00 | 0.00 | 0.00 | 89 | 1011.4 |
| 20260906002846 | 82 | 58 | 1.0 | 3.0 | 0.00 | 0.00 | 0.00 | 89 | 1011.5 |
| 20260906002347 | 82 | 72 | 1.0 | 3.0 | 0.00 | 0.00 | 0.00 | 88 | 1011.5 |
| 20260906001822 | 82 | 34 | 0.0 | 3.0 | 0.00 | 0.00 | 0.00 | 88 | 1011.5 |
| 20260906001255 | 82 | 80 | 0.0 | 2.0 | 0.00 | 0.00 | 0.00 | 87 | 1011.5 |
| 20260906000751 | 83 | 92 | 1.0 | 2.0 | 0.00 | 0.00 | 0.00 | 86 | 1011.5 |
| 20260906000226 | 83 | 82 | 1.0 | 3.0 | 0.00 | 0.00 | 0.00 | 85 | 1011.5 |
| 20260905235721 | 83 | 85 | 1.0 | 6.0 | 0.00 | 0.00 | 0.00 | 84 | 1011.6 |
| 20260905235219 | 83 | 94 | 1.0 | 6.0 | 0.00 | 0.00 | 0.00 | 83 | 1011.7 |
| 20260905234715 | 84 | 99 | 2.0 | 8.0 | 0.00 | 0.00 | 0.00 | 81 | 1011.8 |
| 20260905234150 | 84 | 88 | 2.0 | 8.0 | 0.00 | 0.00 | 0.00 | 79 | 1011.8 |
| 20260905233622 | 85 | 100 | 1.0 | 6.0 | 0.00 | 0.00 | 0.00 | 77 | 1011.9 |
| 20260905233119 | 85 | 38 | 1.0 | 5.0 | 0.00 | 0.00 | 0.00 | 76 | 1011.9 |
| 20260905232554 | 85 | 98 | 1.0 | 5.0 | 0.00 | 0.00 | 0.00 | 76 | 1011.9 |
| 20260905232028 | 85 | 83 | 1.0 | 4.0 | 0.00 | 0.00 | 0.00 | 76 | 1011.7 |
| 20260905231501 | 85 | 74 | 1.0 | 4.0 | 0.00 | 0.00 | 0.00 | 76 | 1011.6 |
| 20260905231213 | 85 | 72 | 1.0 | 4.0 | 0.00 | 0.00 | 0.00 | 76 | 1011.6 |